Waarnemingen

Advertentie
Mijn weer
St-Hubert, België (6476): temperatuur & dauwpunt: 25.09.2020 02:00:00 - 01.10.2020 02:00:00 (CEST)St-Hubert, België (6476): windsnelheid & windstoten: 25.09.2020 02:00:00 - 01.10.2020 02:00:00 (CEST)St-Hubert, België (6476): windrichting: 25.09.2020 02:00:00 - 01.10.2020 02:00:00 (CEST)St-Hubert, België (6476): luchtdruk: 25.09.2020 02:00:00 - 01.10.2020 02:00:00 (CEST)St-Hubert, België (6476): zicht: 25.09.2020 02:00:00 - 01.10.2020 02:00:00 (CEST)
Datum & Tijd tt [°C] td [°C] ff [km/u] ff [kn] fx [km/u] fx [kn] dd ppp [hPa] vv [km]
01.10.2020 02:00:00 11,8 10,3 11 6 - - ZZO 1008,6 24
01.10.2020 01:00:00 12,2 11,0 7 4 22 12 ZZO 1009,2 -
01.10.2020 00:00:00 12,5 11,3 11 6 18 10 Z 1009,9 5
30.09.2020 23:00:00 12,3 11,1 11 6 - - Z 1010,6 -
30.09.2020 22:00:00 12,3 11,0 7 4 18 10 ZZO 1011,0 -
30.09.2020 21:00:00 11,7 10,4 7 4 14 8 ZZO 1011,4 -
30.09.2020 20:00:00 12,4 10,9 7 4 - - Z 1011,7 23
30.09.2020 19:00:00 13,0 11,4 7 4 14 8 Z 1012,0 14
30.09.2020 18:00:00 13,7 11,8 7 4 14 8 Z 1012,2 17
30.09.2020 17:00:00 13,7 11,5 7 4 - - ZZW 1012,9 13
30.09.2020 16:00:00 14,1 11,7 7 4 18 10 ZZW 1013,0 18
30.09.2020 15:00:00 13,8 11,9 7 4 18 10 ZZW 1013,7 13
30.09.2020 14:00:00 13,5 12,0 7 4 - - Z 1014,5 11
30.09.2020 13:00:00 13,3 11,9 7 4 18 10 ZZW 1015,1 9
30.09.2020 12:00:00 13,1 11,9 11 6 14 8 ZZW 1015,5 -
30.09.2020 11:00:00 12,7 11,7 7 4 - - Z 1015,9 5
30.09.2020 10:00:00 - - - - - - - - -
30.09.2020 09:00:00 - - - - - - - - -
30.09.2020 08:00:00 - - - - - - - - -
30.09.2020 07:00:00 - - - - - - - - -
30.09.2020 06:00:00 - - - - - - - - -
30.09.2020 05:00:00 - - - - - - - - -
30.09.2020 04:00:00 - - - - - - - - -
30.09.2020 03:00:00 - - - - - - - - -
30.09.2020 02:00:00 - - - - - - - - -
30.09.2020 01:00:00 - - - - - - - - -
30.09.2020 00:00:00 - - - - - - - - -
29.09.2020 23:00:00 12,1 11,4 4 2 - - ZW 1018,4 0,5
29.09.2020 22:00:00 12,0 11,3 4 2 14 8 ZZW 1018,3 3,4
29.09.2020 21:00:00 11,9 11,1 7 4 14 8 ZZW 1018,3 1,1
29.09.2020 20:00:00 12,0 11,3 7 4 - - ZZW 1018,2 0,8
29.09.2020 19:00:00 12,1 11,3 7 4 18 10 ZZW 1018,0 2,5
29.09.2020 18:00:00 12,0 11,2 7 4 14 8 ZZW 1017,9 1,5
29.09.2020 17:00:00 12,2 11,0 11 6 - - WZW 1017,9 2,0
29.09.2020 16:00:00 12,8 10,4 11 6 22 12 WZW 1017,7 20
29.09.2020 15:00:00 12,0 9,8 7 4 22 12 ZW 1018,2 21
29.09.2020 14:00:00 12,2 9,8 11 6 - - WZW 1018,0 18
29.09.2020 13:00:00 12,4 9,2 14 8 22 12 WZW 1017,8 26
29.09.2020 12:00:00 11,7 8,8 11 6 14 8 WZW 1017,7 25
29.09.2020 11:00:00 10,2 7,9 11 6 - - W 1017,8 16
29.09.2020 10:00:00 9,0 7,9 7 4 14 8 WZW 1017,5 -
29.09.2020 09:00:00 8,8 7,8 4 2 14 8 WZW 1017,1 -
29.09.2020 08:00:00 8,6 7,4 7 4 - - W 1016,6 3,9
29.09.2020 07:00:00 8,7 7,7 14 8 22 12 W 1016,1 1,8
29.09.2020 06:00:00 9,0 8,1 11 6 22 12 W 1015,6 1,0
29.09.2020 05:00:00 9,4 8,5 11 6 - - W 1015,2 2,1
29.09.2020 04:00:00 9,6 8,7 14 8 25 14 W 1014,8 1,7
29.09.2020 03:00:00 10,0 9,1 11 6 25 14 W 1014,3 1,8
29.09.2020 02:00:00 10,1 9,2 14 8 - - W 1013,9 1,6
29.09.2020 01:00:00 10,4 9,6 14 8 22 12 W 1013,6 2,9
29.09.2020 00:00:00 9,9 9,1 11 6 18 10 W 1013,6 1,0
28.09.2020 23:00:00 8,2 7,5 7 4 - - WZW 1013,7 0,4
28.09.2020 22:00:00 7,9 7,1 7 4 14 8 ZW 1013,4 0,2
28.09.2020 21:00:00 7,8 7,0 7 4 14 8 ZZW 1013,0 0,5
28.09.2020 20:00:00 7,5 6,7 7 4 - - ZZW 1012,5 2,0
28.09.2020 19:00:00 7,2 6,3 11 6 22 12 ZZW 1012,1 5
28.09.2020 18:00:00 7,2 6,2 14 8 22 12 Z 1011,6 6
28.09.2020 17:00:00 7,1 6,1 11 6 - - ZZW 1011,6 3,7
28.09.2020 16:00:00 7,1 6,1 11 6 18 10 Z 1011,5 5
28.09.2020 15:00:00 7,0 6,1 11 6 22 12 Z 1011,4 9
28.09.2020 14:00:00 7,1 6,2 11 6 - - ZZW 1011,6 5
28.09.2020 13:00:00 7,2 6,0 11 6 22 12 ZZW 1011,5 10
28.09.2020 12:00:00 7,1 5,5 11 6 18 10 ZZW 1011,1 35
28.09.2020 11:00:00 7,0 5,2 7 4 - - ZZW 1011,1 30
28.09.2020 10:00:00 6,6 5,0 7 4 14 8 ZZW 1010,6 25
28.09.2020 09:00:00 6,3 5,1 4 2 14 8 ZW 1010,7 19
28.09.2020 08:00:00 6,2 4,8 11 6 - - ZZO 1010,6 21
28.09.2020 07:00:00 6,1 5,0 4 2 11 6 ZZO 1010,3 -
28.09.2020 06:00:00 6,0 4,9 7 4 14 8 Z 1009,8 -
28.09.2020 05:00:00 6,1 5,2 7 4 - - Z 1009,6 5
28.09.2020 04:00:00 6,2 5,3 4 2 11 6 Z 1009,7 5
28.09.2020 03:00:00 6,3 5,4 4 2 11 6 ZZW 1009,7 3,5
28.09.2020 02:00:00 6,7 5,7 4 2 - - ZZO 1009,7 9
28.09.2020 01:00:00 6,0 5,0 7 4 14 8 ZO 1009,6 11
28.09.2020 00:00:00 6,5 5,4 11 6 14 8 ZO 1009,2 20
27.09.2020 23:00:00 7,4 6,2 7 4 - - ZZO 1008,9 40
27.09.2020 22:00:00 7,9 6,4 7 4 11 6 ZO 1008,0 45
27.09.2020 21:00:00 8,8 6,8 7 4 11 6 OZO 1007,4 45
27.09.2020 20:00:00 9,3 7,7 4 2 - - OZO 1007,0 45
27.09.2020 19:00:00 9,8 7,7 4 2 14 8 ONO 1005,9 45
27.09.2020 18:00:00 10,0 6,7 7 4 18 10 OZO 1005,1 45
27.09.2020 17:00:00 10,2 7,5 14 8 - - O 1004,1 45
27.09.2020 16:00:00 10,6 7,8 11 6 25 14 O 1003,3 45
27.09.2020 15:00:00 9,6 7,5 14 8 25 14 O 1003,0 23
27.09.2020 14:00:00 9,0 7,2 11 6 - - ONO 1002,5 -
27.09.2020 13:00:00 9,4 7,2 14 8 22 12 ONO 1001,2 45
27.09.2020 12:00:00 9,3 7,6 11 6 22 12 ONO 999,8 40
27.09.2020 11:00:00 9,1 7,7 14 8 - - O 998,7 45
27.09.2020 10:00:00 8,8 7,8 22 12 36 19 NO 997,0 -
27.09.2020 09:00:00 9,9 8,7 22 12 36 19 NO 995,1 30
27.09.2020 08:00:00 9,2 8,1 14 8 - - NNW 994,4 1,4
27.09.2020 07:00:00 8,5 7,5 14 8 29 16 WNW 994,1 3,1
27.09.2020 06:00:00 8,4 7,3 18 10 36 19 W 994,6 3,9
27.09.2020 05:00:00 8,3 7,5 18 10 - - W 996,0 3,2
27.09.2020 04:00:00 8,1 7,1 18 10 36 19 WNW 997,7 6
27.09.2020 03:00:00 8,0 6,8 22 12 32 18 WNW 998,8 9
27.09.2020 02:00:00 7,4 6,4 11 6 - - W 1000,2 7
27.09.2020 01:00:00 7,2 6,1 14 8 29 16 W 1001,4 5
27.09.2020 00:00:00 7,4 6,0 18 10 36 19 WNW 1002,1 8
26.09.2020 23:00:00 7,4 5,9 22 12 - - NW 1002,5 7
26.09.2020 22:00:00 7,4 6,4 18 10 29 16 WNW 1002,6 3,8
26.09.2020 21:00:00 7,0 6,1 14 8 29 16 WNW 1002,6 0,3
26.09.2020 20:00:00 6,8 5,8 14 8 - - W 1002,7 2,5
26.09.2020 19:00:00 6,8 5,6 18 10 36 19 W 1002,6 30
26.09.2020 18:00:00 6,8 5,7 18 10 36 19 W 1002,4 30
26.09.2020 17:00:00 6,7 5,7 25 14 - - W 1002,4 35
26.09.2020 16:00:00 6,9 5,4 18 10 40 21 W 1002,2 45
26.09.2020 15:00:00 6,7 5,2 22 12 43 23 W 1002,6 45
26.09.2020 14:00:00 6,3 4,9 25 14 - - WNW 1002,3 30
26.09.2020 13:00:00 6,1 5,0 22 12 43 23 W 1001,6 35
26.09.2020 12:00:00 6,6 5,3 25 14 43 23 W 1001,0 45
26.09.2020 11:00:00 6,2 5,3 22 12 - - W 1000,9 -
26.09.2020 10:00:00 5,9 4,9 22 12 50 27 W 1000,5 22
26.09.2020 09:00:00 6,0 5,0 22 12 47 25 W 999,9 4,8
26.09.2020 08:00:00 5,8 4,8 22 12 - - W 999,4 5
26.09.2020 07:00:00 5,7 4,7 22 12 54 29 W 999,1 5
26.09.2020 06:00:00 5,6 4,7 25 14 54 29 W 998,8 5
26.09.2020 05:00:00 5,4 4,5 22 12 - - W 999,1 2,2
26.09.2020 04:00:00 5,0 4,2 22 12 50 27 W 999,6 1,2
26.09.2020 03:00:00 4,7 3,6 22 12 43 23 WZW 1000,5 3,0
26.09.2020 02:00:00 5,4 3,6 22 12 - - W 1000,7 10
26.09.2020 01:00:00 5,4 4,1 18 10 47 25 WZW 1001,3 18
26.09.2020 00:00:00 5,6 4,5 25 14 54 29 W 1001,2 5
25.09.2020 23:00:00 5,6 4,5 22 12 - - W 1001,2 4,8
25.09.2020 22:00:00 5,8 4,7 25 14 43 23 W 1001,2 7
25.09.2020 21:00:00 6,0 5,0 18 10 36 19 W 1001,2 10
25.09.2020 20:00:00 6,2 5,1 18 10 - - W 1001,4 18
25.09.2020 19:00:00 6,6 5,3 25 14 43 23 W 1001,1 16
25.09.2020 18:00:00 6,8 5,6 18 10 36 19 W 1000,6 6
25.09.2020 17:00:00 7,2 5,9 18 10 - - W 999,8 12
25.09.2020 16:00:00 7,9 6,6 18 10 29 16 W 998,6 40
25.09.2020 15:00:00 7,6 6,3 11 6 25 14 WZW 997,9 -
25.09.2020 14:00:00 7,4 5,7 14 8 - - ZZW 997,5 30
25.09.2020 13:00:00 7,2 5,7 14 8 32 18 ZZW 997,7 6
25.09.2020 12:00:00 6,7 5,4 14 8 36 19 ZZW 998,0 18
25.09.2020 11:00:00 6,4 5,1 14 8 - - ZZW 998,3 9
25.09.2020 10:00:00 6,0 4,9 18 10 40 21 ZZW 997,9 -
25.09.2020 09:00:00 6,0 4,6 22 12 43 23 ZZW 997,7 18
25.09.2020 08:00:00 5,8 4,5 22 12 - - ZZW 997,9 25
25.09.2020 07:00:00 5,8 4,5 22 12 40 21 ZZW 998,3 24
25.09.2020 06:00:00 5,2 3,8 14 8 29 16 ZZW 999,3 35
25.09.2020 05:00:00 5,9 4,5 14 8 - - ZZW 999,4 45
25.09.2020 04:00:00 6,6 5,3 18 10 43 23 ZW 999,0 35
25.09.2020 03:00:00 6,9 5,7 18 10 40 21 ZW 998,8 45
25.09.2020 02:00:00 8,0 6,6 18 10 - - ZW 998,7 45

tt = temperatuur
td = dauwpunt
ff = windsnelheid
fx = windstoten
dd = windrichting
ppp = luchtdruk
vv = zicht

Weerstations in de omgeving